Content
SEND FEEDBACK

Daily
Averages
Monthly
Summary
United States of America

ASATDAS, GUAM


Home > North America > United States > Guam
Elevation: 612 feet     Latitude: 13 35N     Longitude: 144 56E

WEATHER
 
SELECT A DAY
Number of Records: 214,707;   Date Range: 1/1/95 - 11/19/14
 
SHARE

PRINT THIS DATA

[ ← Previous Day ]
WEATHER ALMANAC - JULY 30, 2014
[ Next Day → ]
[ °C ]   °F
Weather ElementAverageHighLow
Temperature76.8 °F79 °F (7:54 pm)75 °F (11:54 am)
Dewpoint75.7 °F78.8 °F (12:47 pm)73.4 °F (2:01 pm)
Humidity96.1 %100 % (6:39 am)87 % (8:54 am)
Barometer29.71 in29.84 in (1:54 am)29.63 in (4:54 pm)
Wind Speed24.4 mph38 mph (10:37 am)
Wind Gust52.9 mph (10:37 am)
Weather ElementAverage
Visibility3.7 mi
Wind DirectionWSW (253.3 °)

Weather ElementTotal
Precipitation43.58 in
Cooling Degree Days12 (Base 65)
Growing Degree Days27 (Base 50)
Averaged from 206 records on July 30, 2014
WEATHER CONDITIONS BREAKOUT
WIND DIRECTION BREAKOUT
WEATHER BY HOUR - JULY 30, 2014
[ °C ]   °F
Local TimeTemperatureDewpointHumidityBarometerVisibilityWind DirectionWind SpeedGust SpeedPrecipitationEventsConditions
12:17 AM75.2 °F75.2 °F100 %29.79 in1.0 miWNW (290°)31.1 mph38.0 mph0.44 inRainHeavy Rain
12:17 AM75.2 °F75.2 °F100 %29.79 in1.0 miWNW (290°)31.1 mph38.0 mph0.44 inRainHeavy Rain
12:25 AM75.2 °F75.2 °F100 %29.79 in2.0 miWest (280°)29.9 mph38.0 mph0.50 inRainHeavy Rain
12:25 AM75.2 °F75.2 °F100 %29.79 in2.0 miWest (280°)29.9 mph38.0 mph0.50 inRainHeavy Rain
12:42 AM75.2 °F75.2 °F100 %29.77 in3.0 miWest (270°)28.8 mph36.8 mph0.56 inRainRain
12:42 AM75.2 °F75.2 °F100 %29.77 in3.0 miWest (270°)28.8 mph36.8 mph0.56 inRainRain
12:49 AM75.2 °F75.2 °F100 %29.78 in1.5 miWest (280°)27.6 mph36.8 mph0.59 inRainHeavy Rain
12:49 AM75.2 °F75.2 °F100 %29.78 in1.5 miWest (280°)27.6 mph36.8 mph0.59 inRainHeavy Rain
12:54 AM77.0 °F75.9 °F96 %29.77 in1.5 miWest (280°)27.6 mph39.1 mph0.66 inRainHeavy Rain
12:54 AM77.0 °F75.9 °F96 %29.77 in1.5 miWest (280°)27.6 mph39.1 mph0.66 inRainHeavy Rain
1:32 AM75.2 °F75.2 °F100 %29.84 in0.8 miNorth (10°)11.5 mph27.6 mph1.22 inRainHeavy Rain
1:32 AM75.2 °F75.2 °F100 %29.84 in0.8 miNorth (10°)11.5 mph27.6 mph1.22 inRainHeavy Rain
1:50 AM75.2 °F75.2 °F100 %29.80 in2.5 miWNW (300°)19.6 mph26.5 mphRainHeavy Rain
1:50 AM75.2 °F75.2 °F100 %29.80 in2.5 miWNW (300°)19.6 mph26.5 mphRainHeavy Rain
1:54 AM75.9 °F75.9 °F100 %29.77 in2.5 miNW (310°)15.0 mph26.5 mphRainRain
1:54 AM75.9 °F75.9 °F100 %29.77 in2.5 miNW (310°)15.0 mph26.5 mphRainRain
1:56 AM75.2 °F75.2 °F100 %29.79 in3.0 miNW (310°)15.0 mph26.5 mphRainRain
1:56 AM75.2 °F75.2 °F100 %29.79 in3.0 miNW (310°)15.0 mph26.5 mphRainRain
2:18 AM77.0 °F75.2 °F94 %29.78 in9.0 miNW (310°)18.4 mph25.3 mphRainLight Rain
2:18 AM77.0 °F75.2 °F94 %29.78 in9.0 miNW (310°)18.4 mph25.3 mphRainLight Rain
2:37 AM78.8 °F75.2 °F89 %29.76 in10.0 miWNW (300°)15.0 mph21.9 mph0.10 inMostly Cloudy
2:37 AM78.8 °F75.2 °F89 %29.76 in10.0 miWNW (300°)15.0 mph21.9 mph0.10 inMostly Cloudy
2:54 AM78.1 °F75.9 °F93 %29.75 in10.0 miWNW (300°)18.4 mph29.9 mph0.10 inOvercast
2:54 AM78.1 °F75.9 °F93 %29.75 in10.0 miWNW (300°)18.4 mph29.9 mph0.10 inOvercast
3:20 AM78.8 °F75.2 °F89 %29.76 in10.0 miWNW (300°)23.0 mph31.1 mphMostly Cloudy
3:20 AM78.8 °F75.2 °F89 %29.76 in10.0 miWNW (300°)23.0 mph31.1 mphMostly Cloudy
3:30 AM78.8 °F75.2 °F89 %29.76 in10.0 miWNW (300°)25.3 mph33.4 mphMostly Cloudy
3:30 AM78.8 °F75.2 °F89 %29.76 in10.0 miWNW (300°)25.3 mph33.4 mphMostly Cloudy
3:54 AM79.0 °F75.0 °F88 %29.73 in10.0 miWNW (290°)25.3 mph35.7 mphOvercast
3:54 AM79.0 °F75.0 °F88 %29.73 in10.0 miWNW (290°)25.3 mph35.7 mphOvercast
4:06 AM78.8 °F75.2 °F89 %29.75 in10.0 miWNW (290°)23.0 mph33.4 mphOvercast
4:06 AM78.8 °F75.2 °F89 %29.75 in10.0 miWNW (290°)23.0 mph33.4 mphOvercast
4:54 AM78.1 °F73.9 °F87 %29.72 in10.0 miWNW (290°)28.8 mph41.4 mphOvercast
4:54 AM78.1 °F73.9 °F87 %29.72 in10.0 miWNW (290°)28.8 mph41.4 mphOvercast
5:03 AM78.8 °F75.2 °F89 %29.73 in10.0 miWNW (290°)27.6 mph40.3 mphOvercast
5:03 AM78.8 °F75.2 °F89 %29.73 in10.0 miWNW (290°)27.6 mph40.3 mphOvercast
5:21 AM78.8 °F75.2 °F89 %29.73 in10.0 miWNW (300°)26.5 mph39.1 mphOvercast
5:21 AM78.8 °F75.2 °F89 %29.73 in10.0 miWNW (300°)26.5 mph39.1 mphOvercast
5:54 AM78.1 °F77.0 °F96 %29.71 in5.0 miNW (310°)25.3 mph36.8 mph0.04 inRainLight Rain
5:54 AM78.1 °F77.0 °F96 %29.71 in5.0 miNW (310°)25.3 mph36.8 mph0.04 inRainLight Rain
6:04 AM78.8 °F78.8 °F100 %29.72 in3.0 miWNW (300°)23.0 mph35.7 mph0.06 inRainRain
6:04 AM78.8 °F78.8 °F100 %29.72 in3.0 miWNW (300°)23.0 mph35.7 mph0.06 inRainRain
6:10 AM78.8 °F78.8 °F100 %29.72 in2.5 miWNW (290°)26.5 mph35.7 mph0.10 inRainHeavy Rain
6:10 AM78.8 °F78.8 °F100 %29.72 in2.5 miWNW (290°)26.5 mph35.7 mph0.10 inRainHeavy Rain
6:22 AM78.8 °F77.0 °F94 %29.72 in3.0 miWNW (290°)27.6 mph38.0 mph0.17 inRainRain
6:22 AM78.8 °F77.0 °F94 %29.72 in3.0 miWNW (290°)27.6 mph38.0 mph0.17 inRainRain
6:29 AM78.8 °F77.0 °F94 %29.72 in2.0 miWest (280°)28.8 mph40.3 mph0.22 inRainHeavy Rain
6:29 AM78.8 °F77.0 °F94 %29.72 in2.0 miWest (280°)28.8 mph40.3 mph0.22 inRainHeavy Rain
6:31 AM78.8 °F77.0 °F94 %29.72 in1.8 miWest (280°)28.8 mph40.3 mph0.24 inRainHeavy Rain
6:31 AM78.8 °F77.0 °F94 %29.72 in1.8 miWest (280°)28.8 mph40.3 mph0.24 inRainHeavy Rain
6:40 AM78.8 °F78.8 °F100 %29.72 in3.0 miWNW (290°)27.6 mph36.8 mph0.27 inRainRain
6:40 AM78.8 °F78.8 °F100 %29.72 in3.0 miWNW (290°)27.6 mph36.8 mph0.27 inRainRain
6:42 AM78.8 °F78.8 °F100 %29.72 in1.5 miWNW (290°)27.6 mph39.1 mph0.27 inRainRain
6:42 AM78.8 °F78.8 °F100 %29.72 in1.5 miWNW (290°)27.6 mph39.1 mph0.27 inRainRain
6:54 AM78.1 °F77.0 °F96 %29.70 in1.0 miWNW (290°)34.5 mph42.6 mph0.38 inRainRain
6:54 AM78.1 °F77.0 °F96 %29.70 in1.0 miWNW (290°)34.5 mph42.6 mph0.38 inRainRain
7:02 AM77.0 °F75.2 °F94 %29.71 in4.0 miWest (280°)26.5 mph42.6 mph0.03 inRainLight Rain
7:02 AM77.0 °F75.2 °F94 %29.71 in4.0 miWest (280°)26.5 mph42.6 mph0.03 inRainLight Rain
7:26 AM78.8 °F77.0 °F94 %29.72 in2.0 miWest (280°)25.3 mph43.7 mph0.10 inRainHeavy Rain
7:26 AM78.8 °F77.0 °F94 %29.72 in2.0 miWest (280°)25.3 mph43.7 mph0.10 inRainHeavy Rain
7:37 AM78.8 °F77.0 °F94 %29.73 in0.5 miNW (310°)32.2 mph44.9 mph0.38 inFog-RainHeavy Rain
7:37 AM78.8 °F77.0 °F94 %29.73 in0.5 miNW (310°)32.2 mph44.9 mph0.38 inFog-RainHeavy Rain
7:46 AM78.8 °F78.8 °F100 %29.73 in0.5 miNW (310°)29.9 mph44.9 mph0.60 inFog-RainHeavy Rain
7:46 AM78.8 °F78.8 °F100 %29.73 in0.5 miNW (310°)29.9 mph44.9 mph0.60 inFog-RainHeavy Rain
7:54 AM77.0 °F77.0 °F100 %29.71 in0.8 miWNW (290°)33.4 mph48.3 mph0.68 inRainHeavy Rain
7:54 AM77.0 °F77.0 °F100 %29.71 in0.8 miWNW (290°)33.4 mph48.3 mph0.68 inRainHeavy Rain
8:03 AM77.0 °F75.2 °F94 %29.72 in1.0 miWest (280°)26.5 mph40.3 mph0.10 inRainHeavy Rain
8:03 AM77.0 °F75.2 °F94 %29.72 in1.0 miWest (280°)26.5 mph40.3 mph0.10 inRainHeavy Rain
8:12 AM78.8 °F78.8 °F100 %29.71 in3.0 miWest (280°)29.9 mph41.4 mph0.13 inRainLight Rain
8:12 AM78.8 °F78.8 °F100 %29.71 in3.0 miWest (280°)29.9 mph41.4 mph0.13 inRainLight Rain
8:28 AM77.0 °F75.2 °F94 %29.72 in2.5 miWest (280°)32.2 mph46.0 mph0.13 inRainHeavy Rain
8:28 AM77.0 °F75.2 °F94 %29.72 in2.5 miWest (280°)32.2 mph46.0 mph0.13 inRainHeavy Rain
8:32 AM77.0 °F75.2 °F94 %29.71 in1.8 miWest (280°)32.2 mph46.0 mph0.13 inRainHeavy Rain
8:32 AM77.0 °F75.2 °F94 %29.71 in1.8 miWest (280°)32.2 mph46.0 mph0.13 inRainHeavy Rain
8:39 AM78.8 °F77.0 °F94 %29.72 in3.0 miWNW (290°)28.8 mph42.6 mph0.17 inRainRain
8:39 AM78.8 °F77.0 °F94 %29.72 in3.0 miWNW (290°)28.8 mph42.6 mph0.17 inRainRain
8:43 AM78.8 °F77.0 °F94 %29.72 in1.8 miWNW (290°)32.2 mph42.6 mph0.18 inRainHeavy Rain
8:43 AM78.8 °F77.0 °F94 %29.72 in1.8 miWNW (290°)32.2 mph42.6 mph0.18 inRainHeavy Rain
8:54 AM78.1 °F75.9 °F93 %29.69 in1.8 miWest (280°)29.9 mph46.0 mph0.22 inRainLight Rain
8:54 AM78.1 °F75.9 °F93 %29.69 in1.8 miWest (280°)29.9 mph46.0 mph0.22 inRainLight Rain
8:56 AM78.8 °F77.0 °F94 %29.71 in3.0 miWest (280°)31.1 mph46.0 mph0.00 inRainLight Rain
8:56 AM78.8 °F77.0 °F94 %29.71 in3.0 miWest (280°)31.1 mph46.0 mph0.00 inRainLight Rain
9:05 AM78.8 °F78.8 °F100 %29.72 in6.0 miWest (280°)31.1 mph40.3 mph0.00 inOvercast
9:05 AM78.8 °F78.8 °F100 %29.72 in6.0 miWest (280°)31.1 mph40.3 mph0.00 inOvercast
9:14 AM77.0 °F75.2 °F94 %29.73 in1.8 miWNW (290°)31.1 mph46.0 mph0.00 inRainRain
9:14 AM77.0 °F75.2 °F94 %29.73 in1.8 miWNW (290°)31.1 mph46.0 mph0.00 inRainRain
9:19 AM77.0 °F75.2 °F94 %29.74 in2.0 miWNW (290°)31.1 mph43.7 mph0.03 inRainHeavy Rain
9:19 AM77.0 °F75.2 °F94 %29.74 in2.0 miWNW (290°)31.1 mph43.7 mph0.03 inRainHeavy Rain
9:22 AM77.0 °F75.2 °F94 %29.73 in1.8 miWNW (290°)28.8 mph41.4 mph0.03 inRainRain
9:22 AM77.0 °F75.2 °F94 %29.73 in1.8 miWNW (290°)28.8 mph41.4 mph0.03 inRainRain
9:27 AM77.0 °F75.2 °F94 %29.72 in1.0 miWest (280°)29.9 mph41.4 mph0.06 inRainHeavy Rain
9:27 AM77.0 °F75.2 °F94 %29.72 in1.0 miWest (280°)29.9 mph41.4 mph0.06 inRainHeavy Rain
9:37 AM75.2 °F75.2 °F100 %29.72 in3.0 miWest (270°)31.1 mph43.7 mph0.12 inRainLight Rain
9:37 AM75.2 °F75.2 °F100 %29.72 in3.0 miWest (270°)31.1 mph43.7 mph0.12 inRainLight Rain
9:40 AM75.2 °F75.2 °F100 %29.72 in3.0 miWest (270°)29.9 mph40.3 mph0.12 inRainRain
9:40 AM75.2 °F75.2 °F100 %29.72 in3.0 miWest (270°)29.9 mph40.3 mph0.12 inRainRain
9:44 AM75.2 °F75.2 °F100 %29.72 in1.5 miWest (270°)28.8 mph40.3 mph0.12 inRainHeavy Rain
9:44 AM75.2 °F75.2 °F100 %29.72 in1.5 miWest (270°)28.8 mph40.3 mph0.12 inRainHeavy Rain
9:52 AM75.2 °F75.2 °F100 %29.71 in0.2 miWest (270°)32.2 mph42.6 mph0.22 inFog-RainHeavy Rain
9:52 AM75.2 °F75.2 °F100 %29.71 in0.2 miWest (270°)32.2 mph42.6 mph0.22 inFog-RainHeavy Rain
9:54 AM75.9 °F75.9 °F100 %29.69 in0.2 miWest (260°)33.4 mph42.6 mph0.29 inFog-RainHeavy Rain
9:54 AM75.9 °F75.9 °F100 %29.69 in0.2 miWest (260°)33.4 mph42.6 mph0.29 inFog-RainHeavy Rain
10:20 AM77.0 °F77.0 °F100 %29.69 in0.5 miWest (260°)34.5 mph48.3 mph0.59 inFog-RainHeavy Rain
10:20 AM77.0 °F77.0 °F100 %29.69 in0.5 miWest (260°)34.5 mph48.3 mph0.59 inFog-RainHeavy Rain
10:37 AM75.2 °F75.2 °F100 %29.69 in0.2 miWest (270°)38.0 mph52.9 mph0.89 inFog-RainHeavy Rain
10:37 AM75.2 °F75.2 °F100 %29.69 in0.2 miWest (270°)38.0 mph52.9 mph0.89 inFog-RainHeavy Rain
10:51 AM77.0 °F75.2 °F94 %29.69 in1.2 miWest (270°)29.9 mph50.6 mph1.00 inRainRain
10:51 AM77.0 °F75.2 °F94 %29.69 in1.2 miWest (270°)29.9 mph50.6 mph1.00 inRainRain
10:52 AM77.0 °F75.9 °F96 %29.67 in1.2 miWest (270°)28.8 mph50.6 mph1.00 inRainHeavy Rain
10:52 AM77.0 °F75.9 °F96 %29.67 in1.2 miWest (270°)28.8 mph50.6 mph1.00 inRainHeavy Rain
10:58 AM75.2 °F75.2 °F100 %29.69 in0.8 miWest (270°)29.9 mph47.2 mph0.05 inRainHeavy Rain
10:58 AM75.2 °F75.2 °F100 %29.69 in0.8 miWest (270°)29.9 mph47.2 mph0.05 inRainHeavy Rain
11:24 AM77.0 °F75.2 °F94 %29.68 in2.5 miWest (270°)29.9 mph49.5 mph0.31 inRainLight Rain
11:24 AM77.0 °F75.2 °F94 %29.68 in2.5 miWest (270°)29.9 mph49.5 mph0.31 inRainLight Rain
11:31 AM77.0 °F77.0 °F100 %29.69 in3.0 miWest (270°)31.1 mph43.7 mph0.31 inRainRain
11:31 AM77.0 °F77.0 °F100 %29.69 in3.0 miWest (270°)31.1 mph43.7 mph0.31 inRainRain
11:35 AM78.8 °F77.0 °F94 %29.68 in2.5 miWest (270°)29.9 mph42.6 mph0.31 inRainLight Rain
11:35 AM78.8 °F77.0 °F94 %29.68 in2.5 miWest (270°)29.9 mph42.6 mph0.31 inRainLight Rain
11:39 AM77.0 °F75.2 °F94 %29.69 in1.8 miWest (270°)33.4 mph43.7 mph0.32 inRainHeavy Rain
11:39 AM77.0 °F75.2 °F94 %29.69 in1.8 miWest (270°)33.4 mph43.7 mph0.32 inRainHeavy Rain
11:54 AM75.9 °F75.9 °F100 %29.67 in1.5 miWSW (250°)29.9 mph44.9 mph0.39 inRainRain
11:54 AM75.9 °F75.9 °F100 %29.67 in1.5 miWSW (250°)29.9 mph44.9 mph0.39 inRainRain
11:56 AM77.0 °F75.2 °F94 %29.68 in2.0 miWSW (250°)32.2 mph44.9 mph0.00 inRainLight Rain
11:56 AM77.0 °F75.2 °F94 %29.68 in2.0 miWSW (250°)32.2 mph44.9 mph0.00 inRainLight Rain
12:06 PM75.2 °F75.2 °F100 %29.67 in1.8 miWSW (240°)28.8 mph40.3 mph0.04 inRainRain
12:06 PM75.2 °F75.2 °F100 %29.67 in1.8 miWSW (240°)28.8 mph40.3 mph0.04 inRainRain
12:10 PM75.2 °F75.2 °F100 %29.67 in2.5 miWSW (240°)28.8 mph40.3 mph0.04 inRainRain
12:10 PM75.2 °F75.2 °F100 %29.67 in2.5 miWSW (240°)28.8 mph40.3 mph0.04 inRainRain
12:17 PM75.2 °F75.2 °F100 %29.67 in4.0 miWSW (240°)23.0 mph41.4 mph0.04 inRainLight Rain
12:17 PM75.2 °F75.2 °F100 %29.67 in4.0 miWSW (240°)23.0 mph41.4 mph0.04 inRainLight Rain
12:40 PM75.2 °F75.2 °F100 %29.68 in1.0 miWSW (240°)28.8 mph42.6 mph0.10 inRainHeavy Rain
12:40 PM75.2 °F75.2 °F100 %29.68 in1.0 miWSW (240°)28.8 mph42.6 mph0.10 inRainHeavy Rain
12:47 PM75.2 °F75.2 °F100 %29.67 in1.0 miWSW (240°)19.6 mph42.6 mph0.18 inRainHeavy Rain
12:47 PM75.2 °F75.2 °F100 %29.67 in1.0 miWSW (240°)19.6 mph42.6 mph0.18 inRainHeavy Rain
12:54 PM75.9 °F75.0 °F97 %29.66 in1.2 miWSW (240°)34.5 mph44.9 mph0.21 inRainHeavy Rain
12:54 PM75.9 °F75.0 °F97 %29.66 in1.2 miWSW (240°)34.5 mph44.9 mph0.21 inRainHeavy Rain
12:59 PM75.2 °F75.2 °F100 %29.67 in0.5 miSW (230°)25.3 mph44.9 mph0.03 inFog-RainHeavy Rain
12:59 PM75.2 °F75.2 °F100 %29.67 in0.5 miSW (230°)25.3 mph44.9 mph0.03 inFog-RainHeavy Rain
1:15 PM75.2 °F75.2 °F100 %29.67 in1.5 miWSW (240°)25.3 mph35.7 mph0.27 inRainRain
1:15 PM75.2 °F75.2 °F100 %29.67 in1.5 miWSW (240°)25.3 mph35.7 mph0.27 inRainRain
1:20 PM77.0 °F75.2 °F94 %29.67 in3.0 miWSW (240°)20.7 mph34.5 mph0.28 inRainRain
1:20 PM77.0 °F75.2 °F94 %29.67 in3.0 miWSW (240°)20.7 mph34.5 mph0.28 inRainRain
1:34 PM75.2 °F75.2 °F100 %29.68 in1.8 miSSW (210°)18.4 mph33.4 mph0.29 inRainHeavy Rain
1:34 PM75.2 °F75.2 °F100 %29.68 in1.8 miSSW (210°)18.4 mph33.4 mph0.29 inRainHeavy Rain
1:45 PM75.2 °F75.2 °F100 %29.67 in0.5 miSSW (200°)13.8 mph24.2 mph0.56 inFog-RainHeavy Rain
1:45 PM75.2 °F75.2 °F100 %29.67 in0.5 miSSW (200°)13.8 mph24.2 mph0.56 inFog-RainHeavy Rain
1:51 PM75.2 °F75.2 °F100 %29.68 in1.5 miSW (220°)18.4 mph26.5 mph0.62 inRainLight Rain
1:51 PM75.2 °F75.2 °F100 %29.68 in1.5 miSW (220°)18.4 mph26.5 mph0.62 inRainLight Rain
1:54 PM75.9 °F75.0 °F97 %29.66 in5.0 miSW (220°)20.7 mph28.8 mph0.62 inRainLight Rain
1:54 PM75.9 °F75.0 °F97 %29.66 in5.0 miSW (220°)20.7 mph28.8 mph0.62 inRainLight Rain
2:03 PM75.2 °F75.2 °F100 %29.68 in2.0 miSW (220°)16.1 mph31.1 mph0.02 inRainHeavy Rain
2:03 PM75.2 °F75.2 °F100 %29.68 in2.0 miSW (220°)16.1 mph31.1 mph0.02 inRainHeavy Rain
2:06 PM75.2 °F75.2 °F100 %29.68 in1.2 miSSW (210°)16.1 mph31.1 mph0.06 inRainHeavy Rain
2:06 PM75.2 °F75.2 °F100 %29.68 in1.2 miSSW (210°)16.1 mph31.1 mph0.06 inRainHeavy Rain
2:21 PM77.0 °F75.2 °F94 %29.68 in3.0 miSW (220°)24.2 mph35.7 mph0.22 inRainLight Rain
2:21 PM77.0 °F75.2 °F94 %29.68 in3.0 miSW (220°)24.2 mph35.7 mph0.22 inRainLight Rain
2:25 PM77.0 °F75.2 °F94 %29.68 in2.5 miSW (220°)24.2 mph35.7 mph0.22 inRainHeavy Rain
2:25 PM77.0 °F75.2 °F94 %29.68 in2.5 miSW (220°)24.2 mph35.7 mph0.22 inRainHeavy Rain
2:27 PM77.0 °F75.2 °F94 %29.68 in3.0 miSSW (210°)21.9 mph35.7 mph0.22 inRainHeavy Rain
2:27 PM77.0 °F75.2 °F94 %29.68 in3.0 miSSW (210°)21.9 mph35.7 mph0.22 inRainHeavy Rain
2:31 PM75.2 °F75.2 °F100 %29.69 in2.5 miSW (220°)24.2 mph35.7 mph0.25 inRainLight Rain
2:31 PM75.2 °F75.2 °F100 %29.69 in2.5 miSW (220°)24.2 mph35.7 mph0.25 inRainLight Rain
2:36 PM75.2 °F75.2 °F100 %29.69 in0.8 miSW (220°)18.4 mph40.3 mph0.26 inRainHeavy Rain
2:36 PM75.2 °F75.2 °F100 %29.69 in0.8 miSW (220°)18.4 mph40.3 mph0.26 inRainHeavy Rain
2:54 PM75.9 °F75.0 °F97 %29.68 in0.8 miSW (220°)23.0 mph38.0 mph0.68 inRainHeavy Rain
2:54 PM75.9 °F75.0 °F97 %29.68 in0.8 miSW (220°)23.0 mph38.0 mph0.68 inRainHeavy Rain
3:03 PM75.2 °F75.2 °F100 %29.71 in2.0 miSW (220°)17.3 mph32.2 mph0.10 inRainRain
3:03 PM75.2 °F75.2 °F100 %29.71 in2.0 miSW (220°)17.3 mph32.2 mph0.10 inRainRain
3:09 PM75.2 °F75.2 °F100 %29.70 in1.8 miSSW (210°)17.3 mph32.2 mph0.13 inRainHeavy Rain
3:09 PM75.2 °F75.2 °F100 %29.70 in1.8 miSSW (210°)17.3 mph32.2 mph0.13 inRainHeavy Rain
3:21 PM75.2 °F75.2 °F100 %29.70 in2.0 miSSW (210°)21.9 mph31.1 mph0.20 inRainHeavy Rain
3:21 PM75.2 °F75.2 °F100 %29.70 in2.0 miSSW (210°)21.9 mph31.1 mph0.20 inRainHeavy Rain
3:29 PM75.2 °F75.2 °F100 %29.69 in3.0 miSW (220°)16.1 mph29.9 mph0.24 inRainRain
3:29 PM75.2 °F75.2 °F100 %29.69 in3.0 miSW (220°)16.1 mph29.9 mph0.24 inRainRain
3:42 PM75.2 °F73.4 °F94 %29.70 in1.8 miSW (230°)25.3 mph39.1 mph0.27 inRainHeavy Rain
3:42 PM75.2 °F73.4 °F94 %29.70 in1.8 miSW (230°)25.3 mph39.1 mph0.27 inRainHeavy Rain
3:54 PM75.0 °F73.9 °F96 %29.67 in2.5 miSW (230°)21.9 mph32.2 mph0.33 inRainHeavy Rain
3:54 PM75.0 °F73.9 °F96 %29.67 in2.5 miSW (230°)21.9 mph32.2 mph0.33 inRainHeavy Rain
4:07 PM75.2 °F75.2 °F100 %29.68 in4.0 miSW (230°)17.3 mph28.8 mph0.05 inRainRain
4:07 PM75.2 °F75.2 °F100 %29.68 in4.0 miSW (230°)17.3 mph28.8 mph0.05 inRainRain
4:54 PM75.9 °F73.9 °F94 %29.63 in6.0 miWSW (250°)27.6 mph41.4 mph0.11 inRainRain
4:54 PM75.9 °F73.9 °F94 %29.63 in6.0 miWSW (250°)27.6 mph41.4 mph0.11 inRainRain
5:54 PM77.0 °F75.0 °F94 %29.64 in10.0 miWSW (250°)28.8 mph40.3 mph0.04 inRainLight Rain
5:54 PM77.0 °F75.0 °F94 %29.64 in10.0 miWSW (250°)28.8 mph40.3 mph0.04 inRainLight Rain
6:54 PM78.1 °F75.0 °F90 %29.69 in10.0 miSSW (210°)15.0 mph25.3 mph0.06 inRainLight Rain
6:54 PM78.1 °F75.0 °F90 %29.69 in10.0 miSSW (210°)15.0 mph25.3 mph0.06 inRainLight Rain
7:26 PM77.0 °F75.2 °F94 %29.70 in10.0 miSW (230°)17.3 mph35.7 mph0.01 inRainLight Rain
7:26 PM77.0 °F75.2 °F94 %29.70 in10.0 miSW (230°)17.3 mph35.7 mph0.01 inRainLight Rain
7:45 PM77.0 °F75.2 °F94 %29.70 in10.0 miSSW (210°)12.7 mph31.1 mph0.02 inRainLight Rain
7:45 PM77.0 °F75.2 °F94 %29.70 in10.0 miSSW (210°)12.7 mph31.1 mph0.02 inRainLight Rain
7:54 PM77.0 °F75.0 °F94 %29.70 in10.0 miSouth (180°)9.2 mph21.9 mph0.03 inRainLight Rain
7:54 PM77.0 °F75.0 °F94 %29.70 in10.0 miSouth (180°)9.2 mph21.9 mph0.03 inRainLight Rain
8:02 PM77.0 °F75.2 °F94 %29.72 in10.0 miSSW (200°)8.1 mph20.7 mph0.00 inRainLight Rain
8:02 PM77.0 °F75.2 °F94 %29.72 in10.0 miSSW (200°)8.1 mph20.7 mph0.00 inRainLight Rain
8:54 PM78.1 °F75.0 °F90 %29.74 in10.0 miSouth (170°)8.1 mph20.7 mph0.02 inRainLight Rain
8:54 PM78.1 °F75.0 °F90 %29.74 in10.0 miSouth (170°)8.1 mph20.7 mph0.02 inRainLight Rain
9:54 PM78.1 °F75.9 °F93 %29.77 in7.0 miSE (130°)9.2 mph0.02 inRainLight Rain
9:54 PM78.1 °F75.9 °F93 %29.77 in7.0 miSE (130°)9.2 mph0.02 inRainLight Rain
10:30 PM78.8 °F75.2 °F89 %29.79 in10.0 miSW (220°)9.2 mph0.01 inMostly Cloudy
10:30 PM78.8 °F75.2 °F89 %29.79 in10.0 miSW (220°)9.2 mph0.01 inMostly Cloudy
10:54 PM78.1 °F75.0 °F90 %29.78 in10.0 miVariable4.6 mph0.01 inOvercast
10:54 PM78.1 °F75.0 °F90 %29.78 in10.0 miVariable4.6 mph0.01 inOvercast
11:21 PM77.0 °F73.4 °F89 %29.80 in10.0 miSSW (210°)9.2 mphScattered Clouds
11:21 PM77.0 °F73.4 °F89 %29.80 in10.0 miSSW (210°)9.2 mphScattered Clouds
11:54 PM77.0 °F75.0 °F94 %29.79 in10.0 miSSW (200°)8.1 mph0.00 inPartly Cloudy
11:54 PM77.0 °F75.0 °F94 %29.79 in10.0 miSSW (200°)8.1 mph0.00 inPartly Cloudy
Hourly data recorded from PGUM, located miles away from Asatdas, Guam







STORIES FROM OUR PARTNERS